Regional Weather Roundup
Issued by NWS

Home | Current Version | Previous Version | Text Only | Print | Product List | Glossary On
Versions: 1 2 3 4 5 6 7 8 9 10 11 12 13 14 15 16 17 18 19 20 21 22 23 24 25 26 27 28 29 30 31 32 33 34 35 36 37 38 39 40 41 42 43 44 45 46 47 48 49 50
949
ASUS44 KLIX 310101
RWRLA
LOUISIANA WEATHER ROUNDUP
NATIONAL WEATHER SERVICE NEW ORLEANS LA
700 PM CST FRI JAN 30 2015

NOTE: "FAIR" INDICATES FEW OR NO CLOUDS BELOW 12,000 FEET WITH NO
      SIGNIFICANT WEATHER AND/OR OBSTRUCTIONS TO VISIBILITY.
      SKY/WX - SKY CONDITION AND SIGNIFICANT WEATHER.
      TMP - AIR TEMPERATURE.    DP   - DEWPOINT TEMPERATURE.
      RH  - RELATIVE HUMIDITY.  PRES - PRESSURE.
      HX  - HEAT INDEX.         WCI  - WIND CHILL INDEX.

*  THESE STATIONS ARE NOT NWS OR FAA STATIONS AND ARE NOT UNDER
   NWS QUALITY CONTROL.

LAZ040-048-061>063-065-066-069-310200-
SOUTHEAST LOUISIANA

CITY           SKY/WX    TMP DP  RH WIND       PRES   REMARKS
N.O. AUDUBON   NOT AVBL
N.O. INTL ARPT MOCLDY    53  38  56 N9        30.34R
N.O. LAKEFRONT MOCLDY    56  43  61 N12       30.34R
N.O. DOWNTOWN* NOT AVBL
SLIDELL        MOCLDY    46  39  76 CALM      30.34R
BATON ROUGE    CLOUDY    51  33  50 CALM      30.35R
BOOTHVILLE     MOCLDY    51  41  68 CALM      30.33R
BELLE CHASSE   MOCLDY    48  36  63 N3        30.33R
BOGALUSA*        N/A     48  38  68 CALM      30.36R
GALLIANO*      NOT AVBL
NEW ROADS*     NOT AVBL
GONZALES*      NOT AVBL
HAMMOND*       NOT AVBL
HOUMA*         PTCLDY    50  35  55 NE5       30.33R
PORT FOURCHON* CLEAR     57  37  47 NE12      30.35R

$$

LAZ041-044-053-054-310200-
SOUTHWEST LOUISIANA

CITY           SKY/WX    TMP DP  RH WIND       PRES   REMARKS
LAKE CHARLES   MOCLDY    52  37  56 E8        30.33R
LAFAYETTE      MOCLDY    51  35  54 N8        30.34R
PATTERSON      PTCLDY    52  39  62 CALM      30.34R
SALT POINT       N/A     50  38  63 CALM      30.32R
NEW IBERIA     PTCLDY    52  34  50 N7        30.34R
CHENAULT AIRPK NOT AVBL

$$

LAZ027-028-310200-
CENTRAL LOUISIANA

CITY           SKY/WX    TMP DP  RH WIND       PRES   REMARKS
FORT POLK      MOCLDY    49  35  57 NE5       30.34S
ALEXANDRIA INT MOCLDY    50  33  52 NE3       30.36R
ALEXANDRIA     MOCLDY    42  35  76 CALM      30.38R

$$

LAZ001-002-310200-
NORTHWEST LOUISIANA

CITY           SKY/WX    TMP DP  RH WIND       PRES   REMARKS
SHREVEPORT     CLOUDY    45  30  55 E5        30.38R
BARKSDALE AFB  MOCLDY    49  29  46 E3        30.38S
DTN SHREVEPORT MOCLDY    51  28  41 E5        30.39R

$$

LAZ014-016-310200-
NORTHEAST LOUISIANA

CITY           SKY/WX    TMP DP  RH WIND       PRES   REMARKS
MONROE         MOCLDY    42  33  70 NE8       30.42R
TALLULAH       MOCLDY    44  34  67 N8        30.40S

$$




USA.gov is the U.S. government's official web portal to all federal, state and local government web resources and services.